When you browse on this site, cookies collect data to enhance your experience and personalize the content and advertising you see.
Visit our Privacy Policy to learn more. By continuing to use the site, you agree to this use of cookies and data.
  • In Hungary
  • List of Countries
  • For 7 days
  • Water Temperature
  • Weather Map
  • News
  • Weather Widgets
  • user-avatar
    Login

    Hourly Weather Opole Lubelskie

    Today, 12 November, Tuesday

    Time Temperature Precipitation Wind Pressure Humidity
    00:00 +3°C° 0 mm 5 mps 748 mmHg 85%
    01:00 +3°C° 0 mm 5 mps 748 mmHg 82%
    02:00 +3°C° 0 mm 5 mps 748 mmHg 82%
    03:00 +3°C° 0 mm 5 mps 747 mmHg 82%
    04:00 +3°C° 0 mm 5 mps 747 mmHg 82%
    05:00 +3°C° 0 mm 5 mps 747 mmHg 82%
    06:00 +3°C° 0 mm 5 mps 747 mmHg 82%
    07:00 +3°C° 0 mm 5 mps 747 mmHg 80%
    08:00 +6°C° 0 mm 5 mps 747 mmHg 75%
    09:00 +7°C° 0 mm 5 mps 747 mmHg 71%
    10:00 +8°C° 0 mm 6 mps 747 mmHg 67%
    11:00 +9°C° 0 mm 5 mps 747 mmHg 65%
    12:00 +10°C° 0 mm 5 mps 746 mmHg 64%
    13:00 +10°C° 0 mm 5 mps 746 mmHg 61%
    14:00 +10°C° 0 mm 5 mps 746 mmHg 65%
    15:00 +9°C° 0 mm 5 mps 745 mmHg 68%
    16:00 +9°C° 0 mm 5 mps 745 mmHg 71%
    17:00 +9°C° 0.2 mm 5 mps 744 mmHg 73%
    18:00 +8°C° 0.2 mm 5 mps 744 mmHg 75%
    19:00 +8°C° 0.2 mm 5 mps 744 mmHg 77%
    20:00 +9°C° 0 mm 5 mps 744 mmHg 74%
    21:00 +9°C° 0 mm 5 mps 743 mmHg 72%
    22:00 +9°C° 0 mm 5 mps 743 mmHg 70%
    23:00 +9°C° 0 mm 5 mps 742 mmHg 69%

    Tomorrow, 13 November, Wednesday

    Time Temperature Precipitation Wind Pressure Humidity
    00:00 +9°C° 0 mm 5 mps 742 mmHg 69%
    01:00 +9°C° 0 mm 5 mps 742 mmHg 69%
    02:00 +10°C° 0 mm 5 mps 742 mmHg 70%
    03:00 +10°C° 0 mm 5 mps 741 mmHg 71%
    04:00 +11°C° 0 mm 4 mps 741 mmHg 72%
    05:00 +11°C° 0 mm 4 mps 741 mmHg 73%
    06:00 +11°C° 0 mm 4 mps 741 mmHg 75%
    07:00 +10°C° 0 mm 5 mps 741 mmHg 76%
    08:00 +12°C° 0 mm 5 mps 740 mmHg 73%
    09:00 +13°C° 0 mm 5 mps 740 mmHg 69%
    10:00 +13°C° 0 mm 5 mps 739 mmHg 66%
    11:00 +13°C° 0 mm 6 mps 739 mmHg 67%
    12:00 +13°C° 0 mm 6 mps 739 mmHg 68%
    13:00 +13°C° 0 mm 6 mps 739 mmHg 68%
    14:00 +13°C° 0 mm 6 mps 739 mmHg 69%
    15:00 +13°C° 0 mm 5 mps 739 mmHg 70%
    16:00 +13°C° 0 mm 5 mps 739 mmHg 71%
    17:00 +13°C° 0 mm 5 mps 739 mmHg 72%
    18:00 +13°C° 0 mm 5 mps 739 mmHg 72%
    19:00 +12°C° 0 mm 5 mps 739 mmHg 73%
    20:00 +13°C° 0 mm 5 mps 739 mmHg 71%
    21:00 +13°C° 0 mm 6 mps 739 mmHg 69%
    22:00 +14°C° 0 mm 6 mps 739 mmHg 67%
    23:00 +14°C° 0 mm 7 mps 739 mmHg 67%

    Day after tomorrow, 14 November, Thursday

    Time Temperature Precipitation Wind Pressure Humidity
    00:00 +14°C° 0 mm 7 mps 739 mmHg 68%
    01:00 +14°C° 0 mm 7 mps 739 mmHg 68%
    02:00 +14°C° 0 mm 7 mps 740 mmHg 69%
    03:00 +14°C° 0 mm 7 mps 740 mmHg 70%
    04:00 +14°C° 0 mm 7 mps 740 mmHg 71%
    05:00 +13°C° 0 mm 6 mps 741 mmHg 75%
    06:00 +13°C° 0 mm 4 mps 742 mmHg 79%
    07:00 +12°C° 0 mm 3 mps 742 mmHg 83%
    08:00 +13°C° 0 mm 2 mps 743 mmHg 81%
    09:00 +13°C° 0 mm 2 mps 743 mmHg 78%
    10:00 +13°C° 0 mm 2 mps 744 mmHg 75%
    11:00 +13°C° 0 mm 2 mps 744 mmHg 74%
    12:00 +13°C° 0 mm 2 mps 745 mmHg 73%
    13:00 +14°C° 0 mm 1 mps 745 mmHg 72%
    14:00 +13°C° 0 mm 2 mps 745 mmHg 75%
    15:00 +12°C° 0 mm 2 mps 745 mmHg 78%
    16:00 +12°C° 0 mm 2 mps 745 mmHg 81%
    17:00 +10°C° 0 mm 2 mps 745 mmHg 84%
    18:00 +10°C° 0 mm 2 mps 746 mmHg 86%
    19:00 +10°C° 0 mm 2 mps 746 mmHg 89%
    20:00 +10°C° 0 mm 2 mps 746 mmHg 90%
    21:00 +10°C° 0 mm 2 mps 746 mmHg 92%
    22:00 +10°C° 0 mm 3 mps 746 mmHg 93%
    23:00 +10°C° 0 mm 3 mps 746 mmHg 93%

    15 November, Friday

    Time Temperature Precipitation Wind Pressure Humidity
    00:00 +10°C° 0 mm 3 mps 746 mmHg 92%
    01:00 +10°C° 0 mm 3 mps 746 mmHg 92%
    02:00 +10°C° 0 mm 3 mps 746 mmHg 92%
    03:00 +10°C° 0 mm 3 mps 746 mmHg 92%
    04:00 +9°C° 0 mm 3 mps 746 mmHg 92%
    05:00 +9°C° 0 mm 3 mps 746 mmHg 92%
    06:00 +9°C° 0 mm 3 mps 747 mmHg 92%
    07:00 +9°C° 0 mm 3 mps 747 mmHg 92%
    08:00 +11°C° 0 mm 4 mps 747 mmHg 86%
    09:00 +12°C° 0 mm 4 mps 747 mmHg 81%
    10:00 +13°C° 0 mm 4 mps 747 mmHg 75%
    11:00 +14°C° 0 mm 4 mps 747 mmHg 73%
    12:00 +15°C° 0 mm 4 mps 747 mmHg 71%
    13:00 +15°C° 0 mm 4 mps 747 mmHg 69%
    14:00 +14°C° 0 mm 4 mps 747 mmHg 74%
    15:00 +13°C° 0 mm 4 mps 747 mmHg 78%
    16:00 +12°C° 0 mm 4 mps 747 mmHg 83%
    17:00 +12°C° 0 mm 4 mps 747 mmHg 84%
    18:00 +11°C° 0 mm 4 mps 747 mmHg 85%
    19:00 +10°C° 0 mm 4 mps 748 mmHg 86%
    20:00 +10°C° 0 mm 4 mps 748 mmHg 87%
    21:00 +10°C° 0 mm 4 mps 748 mmHg 87%
    22:00 +10°C° 0 mm 4 mps 748 mmHg 87%
    23:00 +10°C° 0 mm 4 mps 748 mmHg 86%

    16 November, Saturday

    Time Temperature Precipitation Wind Pressure Humidity
    00:00 +10°C° 0 mm 4 mps 748 mmHg 86%
    01:00 +10°C° 0 mm 4 mps 748 mmHg 85%
    02:00 +10°C° 0 mm 4 mps 748 mmHg 84%
    03:00 +9°C° 0 mm 5 mps 748 mmHg 83%
    04:00 +9°C° 0 mm 5 mps 748 mmHg 82%
    05:00 +9°C° 0 mm 5 mps 749 mmHg 81%
    06:00 +9°C° 0 mm 5 mps 749 mmHg 81%
    07:00 +9°C° 0 mm 5 mps 749 mmHg 80%
    08:00 +10°C° 0 mm 6 mps 749 mmHg 75%
    09:00 +13°C° 0 mm 6 mps 749 mmHg 70%
    10:00 +14°C° 0 mm 7 mps 749 mmHg 64%
    11:00 +15°C° 0 mm 7 mps 749 mmHg 63%
    12:00 +15°C° 0 mm 6 mps 749 mmHg 61%
    13:00 +16°C° 0 mm 6 mps 749 mmHg 60%
    14:00 +15°C° 0 mm 5 mps 749 mmHg 64%
    15:00 +14°C° 0 mm 5 mps 750 mmHg 68%
    16:00 +13°C° 0 mm 4 mps 750 mmHg 72%
    17:00 +12°C° 0 mm 4 mps 750 mmHg 75%
    18:00 +12°C° 0 mm 4 mps 750 mmHg 77%
    19:00 +11°C° 0 mm 4 mps 751 mmHg 79%
    20:00 +11°C° 0 mm 4 mps 751 mmHg 80%
    21:00 +11°C° 0 mm 3 mps 751 mmHg 81%
    22:00 +10°C° 0 mm 3 mps 751 mmHg 82%
    23:00 +10°C° 0 mm 3 mps 751 mmHg 83%

    17 November, Sunday

    Time Temperature Precipitation Wind Pressure Humidity
    00:00 +10°C° 0 mm 3 mps 751 mmHg 83%
    01:00 +10°C° 0 mm 3 mps 751 mmHg 84%
    02:00 +9°C° 0 mm 3 mps 750 mmHg 85%
    03:00 +8°C° 0 mm 4 mps 750 mmHg 87%
    04:00 +8°C° 0 mm 4 mps 750 mmHg 89%
    05:00 +7°C° 0 mm 4 mps 750 mmHg 88%
    06:00 +7°C° 0 mm 5 mps 750 mmHg 87%
    07:00 +6°C° 0 mm 5 mps 749 mmHg 87%
    08:00 +7°C° 0 mm 5 mps 749 mmHg 83%
    09:00 +8°C° 0 mm 6 mps 749 mmHg 79%
    10:00 +8°C° 0 mm 6 mps 749 mmHg 75%
    11:00 +9°C° 0 mm 6 mps 749 mmHg 73%
    12:00 +9°C° 0 mm 6 mps 749 mmHg 71%
    13:00 +10°C° 0 mm 6 mps 749 mmHg 68%
    14:00 +9°C° 0 mm 6 mps 748 mmHg 70%
    15:00 +8°C° 0 mm 6 mps 748 mmHg 71%
    16:00 +8°C° 0 mm 5 mps 748 mmHg 72%
    17:00 +7°C° 0 mm 5 mps 748 mmHg 73%
    18:00 +7°C° 0 mm 5 mps 748 mmHg 73%
    19:00 +7°C° 0 mm 5 mps 748 mmHg 73%
    20:00 +6°C° 0 mm 5 mps 748 mmHg 75%
    21:00 +6°C° 0 mm 5 mps 748 mmHg 78%
    22:00 +6°C° 0 mm 5 mps 748 mmHg 80%
    23:00 +5°C° 0 mm 5 mps 748 mmHg 82%
    Show more